Regional Weather Roundup
Issued by NWS Austin/San Antonio, TX

Home | Current Version | Previous Version | Text Only | Print | Product List | Glossary On
Versions: 1 2 3 4 5 6 7 8 9 10 11 12 13 14 15 16 17 18 19 20 21 22 23 24 25 26 27 28 29 30 31 32 33 34 35 36 37 38 39 40 41 42 43 44 45 46 47 48 49 50
000
ASUS44 KEWX 210902
RWREWX
SOUTH TEXAS REGIONAL WEATHER ROUNDUP
NATIONAL WEATHER SERVICE AUSTIN/SAN ANTONIO TX
300 AM CST TUE JAN 21 2020

NOTE: "FAIR" INDICATED FEW OR NO CLOUDS BELOW 12,000 FEET WITH NO
SIGNIFICANT WEATHER AND/OR OBSTRUCTIONS TO VISIBILITY.

* - THESE STATIONS ARE NOT NWS OR FAA STATIONS...AND ARE NOT SUBJECT
    TO NWS AND FAA QUALITY CONTROL.

TXZ171-172-183>190-211000-
TEXAS HILL COUNTRY AND EDWARDS PLATEAU

CITY           SKY/WX    TMP DP  RH WIND       PRES   REMARKS
JUNCTION       PTCLDY    43  30  60 CALM      30.43S
*LLANO         CLOUDY    46  32  57 CALM      30.49R
BURNET         CLOUDY    45  26  47 CALM      30.46F
*HORSESHOE BAY CLOUDY    46  30  53 CALM      30.45S
*LAGO VISTA    CLOUDY    44  29  55 CALM      30.45S
*KERRVILLE     CLOUDY    38  34  84 CALM      30.44R
*FREDERICKSBRG CLEAR     36  32  84 CALM      30.44R
*ROCKSPRINGS   CLOUDY    43  25  49 SE5       30.44S WCI  40
*BOERNE        PTCLDY    34  32  93 CALM      30.45F
*CASTROVILLE   CLEAR     44  32  63 CALM      30.46F
HONDO          CLEAR     38  30  73 NE6       30.44F WCI  33
*UVALDE        CLOUDY    44  29  55 E3        30.45R
DEL RIO        PTCLDY    47  31  53 E5        30.41S WCI  45
*LAUGHLIN AFB  NOT AVBL
*SPOFFORD      NOT AVBL
*EAGLE PASS    CLEAR     46  30  53 E5        30.42S WCI  44
CARRIZO SPRGS  PTCLDY    39  27  60 CALM      30.43S
*FAITH RANCH   CLEAR     50  30  46 SE7       30.42R WCI  47
$$

TXZ173-191>194-202-209-217>225-228-211000-
CENTRAL AND SOUTH CENTRAL TEXAS

CITY           SKY/WX    TMP DP  RH WIND       PRES   REMARKS
GEORGETOWN     CLEAR     37  31  78 CALM      30.48F
*TAYLOR        PTCLDY    35  33  93 CALM      30.47S
AUSTIN/BERGSTM MOCLDY    41  35  79 CALM      30.47R
AUSTIN/MABRY     N/A    N/A N/A N/A MISG      30.47S
*PFLUGERVILLE  CLOUDY    45  27  49 CALM      30.47S
SAN MARCOS     MOCLDY    42  35  76 CALM      30.47S
NEW BRAUNFELS  CLEAR     41  34  76 NW5       30.45S WCI  38
*RANDOLPH AFB  CLEAR     38  32  79 N6        30.45F WCI  34
*SEGUIN        CLEAR     40  33  76 CALM      30.51R
SAN ANTONIO    PTCLDY    41  32  70 NW3       30.46S
STINSON FIELD  CLEAR     40  32  73 CALM      30.44S
*KELLY FIELD   PTCLDY    39  31  73 N5        30.43S WCI  35
*PLEASANTON    CLEAR     36  29  74 CALM      30.46S
*KENEDY        CLEAR     38  32  79 CALM      30.48R
*LA GRANGE     CLEAR     38  37  94 CALM      30.46S
*GIDDINGS      CLEAR     40  35  82 CALM      30.47F
*GONZALES      MOCLDY    43  34  68 E3        30.47R
$$

TXZ163>164-176>182-195>201-210>213-226-227-235-211000-
SOUTHEAST TEXAS

CITY           SKY/WX    TMP DP  RH WIND       PRES   REMARKS
COLLEGE STN    CLEAR     40  31  70 CALM      30.48F
*BRYAN         CLEAR     39  31  72 CALM      30.49F
*CALDWELL      CLEAR     37  31  82 CALM      30.49S
*CROCKETT      NOT AVBL
*BRENHAM       CLEAR     37  34  91 CALM      30.49S
HUNTSVILLE     CLEAR     36  30  79 CALM      30.48S
CONROE         CLEAR     32  30  92 CALM      30.49F
HOUSTON BUSH   PTCLDY    40  30  67 CALM      30.49S
HOUSTON HOBBY  FAIR      44  33  65 E3        30.48S
*HOUSTON SW AP FAIR      40  35  80 CALM      30.50R
PEARLAND       FAIR      40  34  79 CALM      30.50S
HOUSTON HOOKS  FAIR      37  31  78 CALM      30.49S
ELLINGTON FLD  NOT AVBL
SUGAR LAND     FAIR      46  34  62 E5        30.48S WCI  44
*HOUSTON EXEC  FAIR      43  34  70 CALM      30.50R
*CLEVELAND MUN FAIR      33  33  99 CALM      30.50F FOG
*WHARTON       CLEAR     43  32  65 E3        30.49R
*COLUMBUS      FAIR      34  23  64 CALM      30.49S
*EAGLE LAKE    CLEAR     42  37  83 CALM      30.48
$$

TXZ214>216-236>238-211000-
THE UPPER TEXAS COAST

CITY           SKY/WX    TMP DP  RH WIND       PRES   REMARKS
*ORANGE        FAIR      35  34  95 CALM      30.53S
PORT ARTHUR    FAIR      39  33  79 NE3       30.50S
GALVESTON      FAIR      50  34  54 NE8       30.49F WCI  47
ANGLETON       FAIR      43  36  76 NE3       30.48S
*BAY CITY      CLEAR     45  38  77 E3        30.48R
PALACIOS       CLEAR    N/A N/A N/A E7        30.47
$$

TXZ229>234-239>247-211000-
TEXAS COASTAL BEND AND RIO GRANDE PLAINS

CITY           SKY/WX    TMP DP  RH WIND       PRES   REMARKS
VICTORIA       CLOUDY    45  39  79 E3        30.47S
*BEEVILLE      NOT AVBL
ROCKPORT       CLEAR     47  40  76 NE5       30.44F WCI  45
*PORT ARANSAS  CLEAR     56  40  55 NE9       30.45F
*PORT LAVACA   NOT AVBL
*INGLESIDE     CLEAR     44  41  89 N5        30.44F WCI  41
CORPUS CHRISTI PTCLDY    47  38  71 E5        30.44F WCI  45
CORPUS NAS     CLEAR     53  41  63 E8        30.44F
*ROBSTOWN      CLEAR     41  34  76 CALM      30.45F
ALICE          CLEAR     40  33  76 CALM      30.43F
KINGSVILLE NAS CLEAR     40  34  79 N6        30.43F WCI  36
COTULLA        CLEAR     43  28  55 E3        30.45R
LAREDO         CLEAR     49  38  65 E7        30.42R WCI  46
$$

TXZ248>255-211000-
DEEP SOUTH TEXAS

CITY           SKY/WX    TMP DP  RH WIND       PRES   REMARKS
BROWNSVILLE    FAIR      51  45  79 N3        30.42F
PORT ISABEL    FAIR      52  46  80 NE6       30.41F
HARLINGEN        N/A     49  43  80 NE5       30.42F WCI  47
*HEBBRONVILLE  CLEAR     43  36  78 CALM      30.43F
MCALLEN        CLEAR     55  44  66 NE7       30.42F
*WESLACO       PTCLDY    50  42  73 CALM      30.42F
FALFURRIAS     CLEAR     43  36  77 CALM      30.43F
EDINBURG       FAIR      48  40  74 CALM      30.43F
*ZAPATA        FAIR      50  40  68 E5        30.42F WCI  49
$$

TXZ213>215-236>238-242>244-246-247-251-254-255-211000-
CMAN STATIONS

STATION/POSITION TIME  TEMP    WIND        PRES    WAVE
                       AIR SEA DIR/SP/G            HT/PER
                 (UTC) (F)     (DEG/KT/KT) (MB)    (FT/S)
SABINE PASS      0824   43 61   40/  6/  9 1034.5
SEA RIM ST PARK  0800   43      60/  5/  5 1032.8
NORTH JETTY/GLS  0824   53 59   70/ 11/ 13 1031.1
EAGLE POINT      0824   52 56   80/ 12/ 13 1031.6
MORGANS POINT    0830   50 62   80/  9/ 11 1032.2
PORT O`CONNOR    0824   56 59   90/ 10/ 12 1031.1
PORT ARANSAS     0800   58 61   40/  9/ 11 1031.2
MALAQUITE BEACH  0824   58 62   30/  9/ 11 1030.5
BAFFIN BAY       0830   54 62   30/  4/  4 1030.9
PORT ISABEL      0824   61 66   50/  6/  8 1030.7
$$



USA.gov is the U.S. government's official web portal to all federal, state and local government web resources and services.